Regional Weather Roundup
Issued by NWS Wilmington, NC

Home | Current Version | Previous Version | Text Only | Print | Product List | Glossary On
Versions: 1 2 3 4 5 6 7 8 9 10 11 12 13 14 15 16 17 18 19 20 21 22 23 24 25 26 27 28 29 30 31 32 33 34 35 36 37 38 39 40 41 42 43 44 45 46 47 48 49 50
000
ASUS42 KILM 180210
RWRILM
RWRILM
REGIONAL HOURLY WEATHER ROUNDUP
NATIONAL WEATHER SERVICE WILMINGTON NC
1000 PM EDT WED SEP 17 2014

NOTE: "FAIR" INDICATES FEW OR NO CLOUDS BELOW 12,000 FEET WITH NO
SIGNIFICANT WEATHER AND/OR OBSTRUCTIONS TO VISIBILITY.

...............WFO WILMINGTON COUNTY WARNING AREA...............

......COASTAL NC AND SC COUNTIES......

CITY           SKY/WX    TMP DP  RH WIND       PRES   REMARKS
WILMINGTON     CLEAR     71  68  90 NE9       29.91S
SOUTHPORT      CLEAR     68  66  94 N3        29.90S
N MYRTLE BEACH CLEAR     72  69  90 CALM      29.90S
MYRTLE BEACH   PTCLDY    75  70  83 NW8       29.90F

......INLAND NC AND SC COUNTIES.......

CITY           SKY/WX    TMP DP  RH WIND       PRES   REMARKS
LUMBERTON      RAIN      73  69  87 NE3       29.92R
ELIZABETHTOWN  MOCLDY    70  68  94 CALM      29.93R
WHITEVILLE     MOCLDY    73  69  88 CALM      29.91R
FLORENCE       CLEAR     72  68  87 CALM      29.91S
DARLINGTON     PTCLDY    70  64  83 NW3       29.92S

....................REST OF NORTH CAROLINA......................

.........EASTERN NC.........

CITY           SKY/WX    TMP DP  RH WIND       PRES   REMARKS
CAPE HATTERAS  PTCLDY    70  64  81 NE9G18    29.92S
JACKSONVILLE   CLEAR     68  63  83 NE6       29.94R
MOREHEAD CITY  CLEAR     72  66  81 NE6       29.93R
KENANSVILLE    PTCLDY    68  65  89 CALM      29.95R
NEW BERN       PTCLDY    70  64  81 NE5       29.95R
ELIZABETH CITY CLEAR     67  60  78 NE8       29.96S

.........CENTRAL NC.........

CITY           SKY/WX    TMP DP  RH WIND       PRES   REMARKS
RALEIGH DURHAM MOCLDY    69  63  81 E5        29.96S
ROCKY MOUNT    CLOUDY    66  62  87 NE3       29.96R
ROANOKE RAPIDS NOT AVBL
FAYETTEVILLE   PTCLDY    72  67  84 NE7       29.93R
HOFFMAN        MOCLDY    73  66  78 E3        29.95R

.........WESTERN NC.........

CITY           SKY/WX    TMP DP  RH WIND       PRES   REMARKS
CHARLOTTE      PTCLDY    66  63  90 N5        29.97R
GREENSBORO     MOCLDY    66  62  87 NE3       29.98R
HICKORY        NOT AVBL
BOONE          NOT AVBL
ASHEVILLE      NOT AVBL

.....................REST OF SOUTH CAROLINA.....................

.........EASTERN SC.........

CITY           SKY/WX    TMP DP  RH WIND       PRES   REMARKS
CHARLESTON     PTCLDY    75  68  78 N3        29.92R
BEAUFORT MCAS  MOCLDY    71  70  96 S5        29.89F
HILTON HEAD    NOT AVBL

.........CENTRAL SC.........

CITY           SKY/WX    TMP DP  RH WIND       PRES   REMARKS
COLUMBIA       MOCLDY    73  68  84 CALM      29.93R
ORANGEBURG     MOCLDY    69  67  93 CALM      29.93R
SUMTER SHAW    CLEAR     71  66  84 NW1       29.91R

.........WESTERN SC.........

CITY           SKY/WX    TMP DP  RH WIND       PRES   REMARKS
GREENVILLE     NOT AVBL
ROCK HILL      CLEAR     64  64 100 CALM      29.97R FOG
ANDERSON       CLOUDY    69  65  86 NE7       29.97R
CLEMSON        NOT AVBL
GREENWOOD      MOCLDY    68  65  90 NE3       29.97R


...................COASTAL AND OFFSHORE REPORTS..................

................LOCAL PIERS AND NC RESERVE................


STATION/POSITION TIME  SKY/WX   TEMP    WIND        PRES    VSBY
                                AIR SEA DIR/SP/G
                 (UTC)          (F)     (DEG/KT/KT) (MB)    (MI)
JOHNY MRCER PIER 0200            75 83   20/ 13/ 16 1012.2S
NC RESRV MASNBRO 0100            77      40/  9     1012.0S
OCEAN CREST PIER 0200            69 82  330/  5/  7 1011.7R
SPRINGMAID  PIER 0200            76 81  330/  4/  4 1012.4S


................COASTAL AND OFFSHORE BUOYS................


STATION/POSITION TIME  SKY/WX   TEMP    WIND        PRES    VSBY
                                AIR SEA DIR/SP/G
                 (UTC)          (F)     (DEG/KT/KT) (MB)    (MI)
DIMNDSHOAL 41025 0200            75      30/ 16/ 19 1012.4R
WVE H/P(F/S)=  7/ 7 WND WVE H/P(F/S)=  5/ 7 SWL H/P/D(F/S/D)=  3/ 90/12

CAPE LOOKOUT     0100            75      50/ 20/ 22 1012.5R
ONSLOW BAY 41036 0200            77 82   40/ 16/ 17 1012.8R
WVE H/P(F/S)=  4/13 WND WVE H/P(F/S)=  3/ 5 SWL H/P/D(F/S/D)=  3/110/13

5 WRITEBCH 41038 0100            75 81   60/ 14/ 16   N/A
MASONBORO  41110 0200               82                N/A
WVE H/P(F/S)=  4/13 WND WVE H/P(F/S)=  3/ 5 SWL H/P/D(F/S/D)=  2/110/13

WILM HARBR 41108 0200               81                N/A
WVE H/P(F/S)=  3/13 WND WVE H/P(F/S)=  2/ 7 SWL H/P/D(F/S/D)=  2/150/13

27WRITEBCH 41037 0100            75 82   60/ 12/ 14 1011.9R
FRYING PAN 41013 NOT AVBL
SUNST NRSH 41024 0100            76      10/  6/  6 1012.3R
CAPRS NRSH 41029 0100            78      CALM  /  4   N/A
EDISTO     41004 0200            81 83   10/  4/  6 1012.4R
WVE H/P(F/S)=  3/13 WND WVE H/P(F/S)=  2/ 4 SWL H/P/D(F/S/D)=  3/13



..........OFFSHORE BUOYS BEYOND 100 NM OFFSHORE...........
.....IN A TRIANGLE---HAT TO BERMUDA TO BAHAMAS TO HAT.....


STATION/POSITION TIME  SKY/WX   TEMP    WIND        PRES    VSBY
                                AIR SEA DIR/SP/G
                 (UTC)          (F)     (DEG/KT/KT) (MB)    (MI)
150E HAT   41001 NOT AVBL
W BERMUDA  41048 0143            80 81  200/ 17/ 23 1011.4F
WVE H/P(F/S)=  4/10 WND WVE H/P(F/S)=  3/ 5 SWL H/P/D(F/S/D)=  2/100/10

ATLANTIC S 41049 0144            83 85  170/  8/ 12 1017.2S
WVE H/P(F/S)=  4/10 SWL H/P/D(F/S/D)=  3/ 60/10

E BAHAMAS  41046 0055            82 85  130/  4/  6 1015.9R
WVE H/P(F/S)=  4/10 WND WVE H/P(F/S)=  2/ 4 SWL H/P/D(F/S/D)=  3/ 60/10

NE BAHAMAS 41047 0125            83 84  200/ 10/ 16 1014.7R
WVE H/P(F/S)=  4/11 WND WVE H/P(F/S)=  2/ 3 SWL H/P/D(F/S/D)=  3/ 90/11

120E CANVRL41010 0200            82 85  300/  8/ 12 1012.3R
WVE H/P(F/S)=  5/13 WND WVE H/P(F/S)=  2/ 4 SWL H/P/D(F/S/D)=  5/ 80/13


END


USA.gov is the U.S. government's official web portal to all federal, state and local government web resources and services.